{"data":{"norad_id":49158,"intl_designator":"2021-082AE","name":"STARLINK-3083","alt_names":[],"object_type":"PAYLOAD","status":"ACTIVE","operator":null,"country":"US","launch_date":"2021-09-14","launch_site_code":"AFWTR","launch_vehicle":null,"mission":null,"orbit_class":"UNKNOWN","rcs_meters":null,"size_class":null,"mass_kg":null,"dimensions":null,"purposes":["comms"],"wikipedia_slug":null,"has_3d_model":false,"image_url":null,"decayed_at":null,"tle_current":{"epoch":"2026-09-19T13:31:46.392096Z","epoch_age_seconds":122211,"freshness":"FRESH","line1":"1 49158U 21082AE  26262.56373139  .00440656  98970-4  51544-3 0  9999","line2":"2 49158  69.9493 339.7159 0007729 290.9421  69.0966 16.08486052280666","mean_motion":16.08486052,"eccentricity":0.0007729,"inclination_deg":69.9493,"raan_deg":339.7159,"arg_perigee_deg":290.9421,"mean_anomaly_deg":69.0966,"bstar":0.00051544,"rev_number":28066,"period_min":89.525177927996,"perigee_km":245.87604652292,"apogee_km":256.1233660435,"semimajor_km":6629.1367062832,"source":"CELESTRAK","updated_at":"2026-09-20T09:00:39.251288Z"}}}